Find Starlink 30405

NORAD ID: 57851 Int'l Des: 2023-141 Owner: SPXS Country: US Constellation: starlink operational
LEOCIRCULAR

当前视图

正在加载3D地球...

About Starlink 30405

Starlink 30405 (NORAD 57851) is a starlink constellation satellite (v2 mini) launched Sep 12, 2023 by SPXS of US. It operates in LEO, CIRCULAR orbit with a mass of 730.00 kg.

关于 Starlink 30405

正在加载描述...

即将过境

Passes for default location (London). Set your location on the main map for personalized predictions.

高度历史

Loading altitude history...

两行轨道根数

1 57851U 23141M 26170.31663471 .00000766 00000-0 36460-4 0 9996
2 57851 53.1597 171.5936 0000757 95.5853 264.5234 15.31679674155897
Epoch: Jun 19, 2026 • Age: 12 hours

当前状态

高度 488.2 km
速度 7.62 km/s
星下点 -49.31°S, 153.52°W
发射日期 Sep 12, 2023
运行时间 2.7 years
类型 internet

技术详情

分类 Payload
质量 730.00 kg
干质量 700.00 kg
总质量 730.00 kg
长度 0.30 m
直径 4.10 m
跨度 29.00 m
形状 Box + pan
制造商 SPXS
平台类型 Starlink V2M
阶段状态 In Orbit
所有者/国家 SPXS/US

Most Searched